[[{"header":{"parameterUnit":"m.s-1","parameterCategory":1,"la1":30.2991,"la2":30.254,"lo1":-89.0895,"lo2":-89.0444,"dy":0.0017,"dx":0.0017,"nx":28,"ny":28,"refTime":"2024-05-12T21:00:00:Z","depth":0,"parameterNumber":2,"parameterNumberName":"U-component_of_WINDS"},"data":[0,0,0,0,0,0,0,0,0,0,0,0,0,0,0,0,0,0,0,0,0,0,0,0,0,0,0,0,0,0,0,0,0,0,0,0,0,0,0,0,0,0,0,0,0,0,0,0,0,0,0,0,0,0,0,0,0,0,2.0111,2.011,0,2.0,1.9999,1.9998,1.9887,1.9885,1.9884,1.9882,1.9768,1.9766,1.9764,0,0,0,0,0,0,0,0,0,0,0,0,0,2.0225,2.0224,2.0111,2.011,2.0109,2.0001,1.9999,1.9998,1.9887,1.9885,1.9883,1.9882,1.9768,1.9766,1.9764,0,0,0,0,0,0,0,0,0,0,0,0,0,2.0151,2.0223,2.0112,2.004,2.0033,2.0001,1.9999,1.9997,1.9887,1.9885,1.9883,1.9881,1.9769,1.9766,1.9764,1.9793,0,0,1.9756,1.9755,0,0,0,0,0,0,0,0,2.0156,2.0147,2.0052,2.0045,2.0037,1.9955,1.9997,1.9929,1.9888,1.9943,1.9882,1.988,1.9832,1.9824,1.9808,1.9787,1.9782,1.9756,1.9754,1.9753,1.9753,0,0,0,0,0,0,0,2.0161,2.0151,2.0067,2.0051,2.0042,2.0013,2.0,1.9984,1.9901,1.9938,1.9929,1.9918,1.9827,1.9811,1.9804,1.9781,1.9756,1.9754,1.9752,1.9751,1.9777,1.9779,0,0,0,0,0,0,2.0177,2.0156,2.0071,2.0064,2.0092,2.0013,1.9999,1.9984,1.9901,1.9886,1.992,1.9913,1.9816,1.9807,1.98,1.9828,1.9753,1.9751,1.9749,1.9775,1.9778,1.978,0,0,0,0,0,0,2.018,2.0171,2.0075,2.0108,2.0094,2.0014,1.9998,1.9983,1.9966,1.9887,1.9872,1.9918,1.9814,1.9803,1.9795,1.9822,1.975,1.9748,1.9772,1.9776,1.9779,1.9884,0,0,0,0,0,0,2.0184,2.0172,2.0183,2.0109,2.0092,2.0073,1.9999,1.9982,1.9962,1.9952,1.9882,1.9868,1.9811,1.98,1.9793,1.9817,1.9746,1.977,1.9774,1.9778,1.9878,1.9891,1.9901,0,0,0,0,0,2.0188,2.0217,2.0184,2.0174,2.0104,2.0075,2.0066,2.0,1.9965,1.9974,1.9924,1.987,1.9821,1.98,1.9791,1.9815,1.9768,1.9773,1.9778,1.9873,1.9888,1.9901,0,0,0,0,0,0,2.0295,2.0206,2.0168,2.0174,2.0133,2.0057,2.0067,2.0019,1.9987,1.9979,1.9898,1.9883,1.9884,1.9849,1.9827,1.9838,1.9786,1.979,1.9862,1.9876,1.9887,1.9896,1.9743,0,0,0,0,0,2.032,2.0305,2.0227,2.0239,2.0221,2.0148,2.0133,2.0086,2.004,2.0022,1.997,1.9928,1.9902,1.9887,1.9859,1.9872,1.9855,1.9885,1.9896,1.9907,1.991,1.9914,1.9926,1.9796,1.9796,1.9796,0,0,2.037,2.0319,2.0314,2.0259,2.0222,2.0207,2.0134,2.0121,2.0109,2.002,2.0009,1.997,1.9916,1.9919,1.9918,1.9889,1.9942,1.9913,1.9922,1.992,1.992,1.9933,1.9944,1.98,1.9799,1.9799,0,0,2.0453,2.0414,2.0419,2.0384,2.0328,2.028,2.0281,2.0212,2.0182,2.017,2.0103,2.0087,2.0045,2.001,1.9986,2.0057,2.0006,2.005,2.0111,2.0116,2.0126,2.0135,2.0159,2.0169,2.0054,2.0054,2.0054,0,2.0522,2.0498,2.0428,2.042,2.0398,2.0316,2.0321,2.029,2.0228,2.0214,2.0184,2.0129,2.0087,2.008,2.0098,2.0082,2.008,2.0057,2.013,2.0138,2.0145,2.0168,2.0177,2.006,2.0059,2.0059,2.0058,0,2.0585,2.0569,2.058,2.0524,2.0502,2.0501,2.043,2.0417,2.0372,2.0327,2.0315,2.0263,2.0222,2.0217,2.0173,2.0204,2.0188,2.0145,2.0091,2.0165,2.0184,2.0192,2.0068,2.0066,2.0064,2.0063,0,0,2.0733,2.0638,2.0643,2.0616,2.0549,2.0535,2.0529,2.0491,2.0481,2.0441,2.0434,2.04,2.036,2.0334,2.0285,2.0289,2.0347,2.0245,2.0242,2.0265,2.0377,2.0409,2.0421,2.0313,2.0315,2.0316,2.0381,0,2.0804,2.079,2.0727,2.0731,2.0715,2.0638,2.0633,2.0591,2.0548,2.0528,2.048,2.0458,2.0407,2.039,2.0391,2.034,2.0369,2.0335,2.0305,2.0305,2.0321,2.0431,2.0465,2.0529,2.0389,2.039,2.0391,0,2.0886,2.0852,2.0855,2.0788,2.0779,2.0776,2.0735,2.0717,2.0667,2.0636,2.0607,2.0552,2.0541,2.0492,2.0475,2.0453,2.0438,2.0411,2.0412,2.0406,2.0352,2.0428,2.0548,2.0558,2.0402,2.0401,2.0401,0,2.0992,2.0947,2.0943,2.0922,2.0845,2.0844,2.0811,2.076,2.0741,2.0705,2.0691,2.0655,2.0635,2.0608,2.0544,2.0514,2.0535,2.048,2.0508,2.0509,2.0515,2.0515,2.0634,2.0507,2.0506,2.0506,2.0506,0,2.1078,2.1083,2.099,2.0987,2.099,2.0917,2.0922,2.0882,2.0837,2.0824,2.0755,2.0745,2.0662,2.0642,2.0593,2.0586,2.0578,2.0552,2.0538,2.0558,2.0561,2.0546,2.0539,2.0509,2.0508,2.0508,2.0507,0,2.1198,2.1136,2.1126,2.1053,2.1035,2.104,2.0977,2.0971,2.0925,2.091,2.0902,2.0829,2.0802,2.0736,2.0692,2.0658,2.0665,2.0641,2.0682,2.0673,2.0704,2.0702,2.0817,2.0828,2.0695,2.0696,2.0697,0,2.1256,2.1258,2.1186,2.1173,2.1144,2.1124,2.1104,2.1032,2.1014,2.0958,2.0959,2.0927,2.0897,2.0858,2.08,2.0765,2.0739,2.0782,2.0734,2.0753,2.0739,2.0739,2.0739,2.0793,2.0794,2.0796,2.0797,0,2.1367,2.1336,2.131,2.1274,2.1252,2.122,2.1184,2.1177,2.1097,2.108,2.1052,2.1029,2.0984,2.0952,2.0909,2.0874,2.0822,2.0813,2.0817,2.0836,2.086,2.0847,2.071,2.081,2.0809,2.0808,2.0807,2.0807,2.1457,2.1455,2.1404,2.1377,2.1342,2.131,2.1301,2.1254,2.1229,2.1187,2.1146,2.1122,2.1072,2.1009,2.0978,2.0958,2.0931,2.0938,2.0939,2.0942,2.095,2.0864,2.095,2.0949,2.0949,2.0948,2.0948,0,2.1563,2.1526,2.1503,2.1455,2.1434,2.1388,2.1345,2.133,2.131,2.1269,2.1241,2.1208,2.1178,2.1118,2.1081,2.1076,2.1052,2.1069,2.1068,2.1061,2.0976,2.0976,2.109,2.109,2.109,2.109,2.109,2.109,2.1616,2.1609,2.1573,2.1548,2.1511,2.1488,2.1467,2.1437,2.1403,2.137,2.1345,2.1306,2.1257,2.1216,2.1186,2.1169,2.1158,2.1183,2.1159,2.1081,2.1067,2.1054,2.1053,2.1182,2.1182,2.1245,2.1245,2.1246]},{"header":{"parameterUnit":"m.s-1","parameterCategory":1,"la1":30.2991,"la2":30.254,"lo1":-89.0895,"lo2":-89.0444,"dy":0.0017,"dx":0.0017,"nx":28,"ny":28,"refTime":"2024-05-12T21:00:00:Z","depth":0,"parameterNumber":3,"parameterNumberName":"V-component_of_WINDS"},"data":[0,0,0,0,0,0,0,0,0,0,0,0,0,0,0,0,0,0,0,0,0,0,0,0,0,0,0,0,0,0,0,0,0,0,0,0,0,0,0,0,0,0,0,0,0,0,0,0,0,0,0,0,0,0,0,0,0,0,6.4841,6.4844,0,6.5128,6.5132,6.5135,6.5201,6.5199,6.5197,6.5195,6.5492,6.5502,6.5511,0,0,0,0,0,0,0,0,0,0,0,0,0,6.4351,6.4359,6.484,6.4844,6.4848,6.5128,6.5132,6.5136,6.5201,6.5199,6.5196,6.5194,6.5489,6.5501,6.5512,0,0,0,0,0,0,0,0,0,0,0,0,0,6.4593,6.4362,6.484,6.4914,6.4924,6.5127,6.5132,6.5137,6.5202,6.5199,6.5196,6.5193,6.5485,6.5499,6.5514,6.5665,0,0,6.5559,6.5565,0,0,0,0,0,0,0,0,6.458,6.4611,6.49,6.4909,6.492,6.5126,6.5068,6.5314,6.5203,6.5096,6.5195,6.5191,6.5373,6.5397,6.5457,6.5679,6.5691,6.556,6.5569,6.5575,6.5579,0,0,0,0,0,0,0,6.4563,6.4599,6.4955,6.4904,6.4916,6.4934,6.4965,6.5115,6.5248,6.5105,6.5111,6.5144,6.5378,6.5443,6.5465,6.5696,6.556,6.5573,6.5582,6.5587,6.6058,6.6062,0,0,0,0,0,0,6.4532,6.4585,6.4945,6.4963,6.4739,6.4945,6.498,6.5063,6.5247,6.5272,6.5146,6.5146,6.5419,6.5448,6.5475,6.5666,6.5575,6.5589,6.5597,6.6055,6.6059,6.6063,0,0,0,0,0,0,6.4522,6.4564,6.4934,6.4776,6.4824,6.4957,6.5049,6.507,6.5135,6.5277,6.5302,6.5188,6.5418,6.5455,6.5618,6.5677,6.5596,6.5609,6.605,6.6056,6.6061,6.6047,0,0,0,0,0,0,6.4507,6.456,6.4618,6.4776,6.4832,6.507,6.5053,6.5078,6.516,6.5162,6.5323,6.5347,6.5419,6.5595,6.5632,6.5696,6.562,6.6045,6.6053,6.6059,6.6043,6.6052,6.6059,0,0,0,0,0,6.449,6.4602,6.462,6.4663,6.4907,6.5073,6.5105,6.5185,6.5164,6.5225,6.5316,6.5342,6.5664,6.5611,6.5654,6.5723,6.6042,6.6051,6.6059,6.6039,6.605,6.6059,0,0,0,0,0,0,6.4448,6.4624,6.4646,6.4813,6.4928,6.5084,6.5162,6.5193,6.5317,6.5314,6.5408,6.5444,6.5601,6.5678,6.5616,6.588,6.5853,6.587,6.5824,6.5835,6.5843,6.5822,6.5633,0,0,0,0,0,6.4457,6.4577,6.4725,6.4858,6.4915,6.5028,6.5104,6.5155,6.5278,6.5327,6.543,6.5549,6.5678,6.576,6.5886,6.6054,6.6091,6.6122,6.613,6.6136,6.615,6.6247,6.6263,6.609,6.609,6.609,0,0,6.448,6.4591,6.4661,6.4853,6.4948,6.507,6.5069,6.5198,6.5291,6.5347,6.5507,6.5587,6.5726,6.5893,6.5971,6.5962,6.6206,6.6147,6.615,6.6162,6.6257,6.6274,6.6288,6.6096,6.6095,6.6094,0,0,6.4584,6.4679,6.4801,6.4896,6.5039,6.5115,6.5144,6.5296,6.5351,6.5513,6.5559,6.567,6.5889,6.5987,6.6065,6.6207,6.6236,6.6245,6.6288,6.6381,6.6394,6.6407,6.646,6.6477,6.6258,6.6258,6.6258,0,6.4594,6.4779,6.486,6.4989,6.5072,6.5128,6.5254,6.5342,6.5519,6.5577,6.5563,6.584,6.5937,6.6129,6.6163,6.6224,6.6262,6.6228,6.6386,6.6399,6.6412,6.6463,6.6483,6.6259,6.6259,6.6259,6.6259,0,6.4785,6.4913,6.4995,6.5165,6.5258,6.5384,6.5485,6.557,6.5613,6.569,6.5856,6.5975,6.6126,6.6175,6.6219,6.6374,6.6364,6.6366,6.6342,6.6428,6.6477,6.6497,6.6259,6.6259,6.6259,6.6259,0,0,6.4871,6.5084,6.5113,6.5191,6.5354,6.5455,6.5584,6.5732,6.5804,6.5924,6.6036,6.622,6.6225,6.6314,6.6369,6.645,6.6558,6.6444,6.6449,6.6463,6.6738,6.6736,6.6757,6.6577,6.6581,6.6584,6.6727,0,6.4996,6.5228,6.5305,6.5498,6.5619,6.5674,6.5787,6.5899,6.5975,6.6089,6.6172,6.6302,6.6297,6.6351,6.6434,6.6527,6.6614,6.6517,6.6684,6.6689,6.6649,6.6783,6.6781,6.6909,6.6747,6.675,6.6752,0,6.5173,6.5296,6.55,6.5649,6.5703,6.5803,6.5946,6.6053,6.6183,6.6232,6.6331,6.6381,6.652,6.6486,6.6679,6.6612,6.6685,6.674,6.6747,6.6767,6.6727,6.6808,6.6952,6.6972,6.6783,6.6781,6.6779,0,6.5217,6.5434,6.5585,6.565,6.5827,6.5896,6.5973,6.6099,6.6184,6.6309,6.6365,6.6504,6.6581,6.6689,6.6775,6.6742,6.6962,6.6935,6.7009,6.7007,6.7054,6.705,6.7213,6.7097,6.7097,6.7097,6.7096,0,6.535,6.5473,6.5607,6.57,6.5841,6.5929,6.6067,6.6147,6.6259,6.637,6.6426,6.6529,6.6636,6.6754,6.6822,6.6974,6.7007,6.7052,6.707,6.7049,6.7043,6.7099,6.7093,6.7102,6.7101,6.71,6.7099,0,6.5423,6.5518,6.5687,6.584,6.5882,6.5979,6.6111,6.6204,6.6282,6.6422,6.6459,6.6582,6.6723,6.682,6.7001,6.7047,6.7212,6.7227,6.7168,6.7177,6.7246,6.7239,6.7452,6.7486,6.7345,6.7346,6.7347,0,6.5502,6.5599,6.5763,6.5841,6.5918,6.6042,6.6129,6.622,6.6308,6.6463,6.6538,6.6683,6.6804,6.7028,6.7134,6.7274,6.7293,6.7359,6.7315,6.7291,6.7297,6.7291,6.7302,6.7366,6.7367,6.7368,6.7368,0,6.5634,6.5676,6.5798,6.5937,6.6038,6.6152,6.6267,6.6328,6.6439,6.6535,6.668,6.6774,6.6959,6.7104,6.7253,6.7334,6.7371,6.7381,6.7406,6.7387,6.7349,6.7373,6.7189,6.7376,6.7375,6.7375,6.7374,6.7374,6.5714,6.5803,6.5933,6.6067,6.6163,6.6269,6.6364,6.6454,6.6576,6.6734,6.678,6.6931,6.706,6.7265,6.7349,6.747,6.7464,6.7499,6.7509,6.7517,6.7518,6.7328,6.7497,6.7497,6.7497,6.7497,6.7497,0,6.585,6.5936,6.6059,6.6217,6.6323,6.6347,6.6475,6.6563,6.6695,6.6812,6.693,6.7098,6.7238,6.7355,6.75,6.7575,6.7596,6.761,6.7607,6.7625,6.7513,6.7478,6.7591,6.7591,6.7591,6.7591,6.7591,6.7591,6.5933,6.6085,6.6143,6.6344,6.643,6.6578,6.6649,6.6748,6.6842,6.7026,6.7143,6.7218,6.7336,6.749,6.7621,6.7652,6.7704,6.7715,6.775,6.7643,6.7633,6.7623,6.759,6.7725,6.7725,6.7852,6.7853,6.7854]}]]